Location: *
(46.0770°N, 1.6444°E)
Time: 09:17:00
(UTC+00:00)

USA 186 - Pass Details

Date: 16 September 2019
Orbit: 261 x 450 km, 96.9° (Epoch: 07 October)

Event Time Altitude Azimuth Distance (km) Brightness Sun altitude
Exits shadow 19:51:39 12° 195° (SSW) 1,414 4.3 -18.9°
Maximum altitude 19:54:27 38° 263° (W) 698 3.3 -19.3°
Drops below altitude 10° 19:57:41 10° 333° (NNW) 1,597 5.4 -19.8°
Sets 19:59:51 0° 341° (NNW) 2,479 6.3 -20.2°
